This demonstration page uses our WeatherBlox Daily Observations layout. Learn more.

Left ArrowRight Arrow

39.01783, -85.05884

Hourly Observations for November 9, 2020

Temp ( °F °C ) Dew Point ( °F °C ) Humidity (%) Winds ( mph kmh ) Pressure ( in mb ) Visibility ( mi km ) Precip ( " mm )
12:52 am 00:52 Clear 60 15.6 47 8.3 62 62 SSE 3 6 30.22 1023 10 16.0934 0 0
1:52 am 01:52 Clear 60 15.6 47 8.3 62 62 SSE 5 7 30.21 1023 10 16.0934 0 0
2:52 am 02:52 Mostly Clear 59 15 47 8.3 64 64 SSE 6 9 30.22 1023 10 16.0934 0 0
3:52 am 03:52 Clear 59 15 47 8.3 64 64 SSE 5 7 30.21 1023 10 16.0934 0 0
4:52 am 04:52 Clear 58 14.4 47 8.3 67 67 S 6 9 30.22 1023 10 16.0934 0 0
5:52 am 05:52 Clear 57 13.9 47 8.3 69 69 SSE 5 7 30.23 1024 10 16.0934 0 0
6:52 am 06:52 Clear 57 13.9 48 8.9 72 72 SSE 6 9 30.24 1024 10 16.0934 0 0
7:52 am 07:52 Sunny 58 14.4 49 9.4 72 72 SSE 6 9 30.26 1025 10 16.0934 0 0
8:52 am 08:52 Mostly Sunny 63 17.2 53 11.7 70 70 SSE 7 11 30.26 1025 10 16.0934 0 0
9:52 am 09:52 Mostly Sunny 68 20 54 12.2 61 61 S 10 17 30.26 1025 10 16.0934 0 0
10:52 am 10:52 Mostly Sunny 71 21.7 55 12.8 57 57 S 8 13 30.24 1024 10 16.0934 0 0
11:52 am 11:52 Mostly Sunny 75 23.9 55 12.8 50 50 SW 7 11 30.21 1023 10 16.0934 0 0
12:52 pm 12:52 Partly Cloudy 77 25 54 12.2 45 45 SE 6 9 30.17 1022 10 16.0934 0 0
1:52 pm 13:52 Mostly Sunny 78 25.6 54 12.2 43 43 SSE 3 6 30.14 1021 10 16.0934 0 0
2:52 pm 14:52 Mostly Sunny 79 26.1 54 12.2 42 42 S 8 13 30.12 1020 10 16.0934 0 0
3:52 pm 15:52 Mostly Sunny 77 25 54 12.2 45 45 SSE 12 19 30.11 1020 10 16.0934 0 0
4:52 pm 16:52 Mostly Sunny 74 23.3 54 12.2 50 50 SSE 8 13 30.1 1019 10 16.0934 0 0
5:52 pm 17:52 Mostly Clear 70 21.1 54 12.2 57 57 SSE 6 9 30.1 1019 10 16.0934 0 0
6:52 pm 18:52 Mostly Clear 67 19.4 53 11.7 61 61 S 7 11 30.11 1020 10 16.0934 0 0
7:52 pm 19:52 Mostly Clear 67 19.4 53 11.7 61 61 SSE 6 9 30.11 1020 10 16.0934 0 0
8:52 pm 20:52 Mostly Clear 66 18.9 53 11.7 63 63 SSE 6 9 30.09 1019 10 16.0934 0 0
9:52 pm 21:52 Mostly Clear 64 17.8 53 11.7 68 68 SSE 7 11 30.09 1019 10 16.0934 0 0
10:52 pm 22:52 Mostly Clear 64 17.8 52 11.1 65 65 S 8 13 30.08 1019 10 16.0934 0 0
11:52 pm 23:52 Mostly Clear 64 17.8 52 11.1 65 65 S 6 9 30.07 1018 10 16.0934 0 0

Powered by AerisWeather